Weather History for Duesseldorf, Germany

Change the Weather History Date:

Sunday, April 14, 2013

  Actual Average Record
Temperature  
Mean Temperature 62 °F -  
Max Temperature 72 °F 61 °F - ()
Min Temperature 51 °F 43 °F - ()
Degree Days  
Heating Degree Days 4    
Growing Degree Days 12 (Base 50)    
Moisture  
Dew Point 48 °F    
Average Humidity 62    
Maximum Humidity 82    
Minimum Humidity 37    
Precipitation  
Precipitation 0.00 in - - ()
Sea Level Pressure  
Sea Level Pressure 30.14 in    
Wind  
Wind Speed 10 mph ()    
Max Wind Speed 14 mph    
Max Gust Speed -    
Visibility 7.8 miles    
Events Rain    
T = Trace of Precipitation, MM = Missing Value Source: Averaged Metar Reports

Daily Weather History Graph

Daily Weather History Graph

Search for Another Location

Airport:

Trip Planner

Search our weather history database for the weather conditions in past years. The results will help you decide how hot, cold, wet, or windy it might be!

Date:

Astronomy

Apr. 14, 2013 Rise Set
Actual Time 6:39 AM CEST 8:27 PM CEST
Civil Twilight 6:04 AM CEST 9:02 PM CEST
Nautical Twilight 5:21 AM CEST 9:46 PM CEST
Astronomical Twilight 4:32 AM CEST 10:35 PM CEST
Moon 8:43 AM CEST (4/14) No Moon Set
Length of Visible Light 14h 58m
Length of Day
13h 48m
Waxing Crescent, 15% of the Moon is Illuminated
Apr 14
Waxing Crescent
Apr 18
First Quarter
Apr 25
Full
May 2
Last Quarter
May 10
New

Hourly Weather History & Observations

Time (CEST) Temp. Dew Point Humidity Pressure Visibility Wind Dir Wind Speed Gust Speed Precip Events Conditions
12:00 AM 54 °F 44 °F 61% 30.15 in 31 mi South 8.9 mph - - Rain Light Rain
12:20 AM 53.6 °F 44.6 °F 72% 30.15 in 6.2 mi South 8.1 mph - N/A Rain Light Rain
12:50 AM 51.8 °F 46.4 °F 82% 30.15 in 6.2 mi South 11.5 mph - N/A Rain Light Rain
1:00 AM 52 °F 46 °F 74% 30.16 in 31 mi South 11.2 mph - - Rain Light Rain
1:20 AM 51.8 °F 46.4 °F 82% 30.15 in 6.2 mi South 11.5 mph - N/A Rain Light Rain
1:50 AM 51.8 °F 46.4 °F 82% 30.15 in 6.2 mi South 10.4 mph - N/A Rain Light Rain
2:00 AM 52 °F 47 °F 76% 30.16 in 25 mi South 11.2 mph - - Rain Light Rain
2:20 AM 53.6 °F 46.4 °F 77% 30.12 in 6.2 mi SSE 10.4 mph - N/A Rain Light Rain
2:50 AM 53.6 °F 46.4 °F 77% 30.12 in 6.2 mi SSE 10.4 mph - N/A   Mostly Cloudy
3:00 AM 53 °F 47 °F 73% 30.15 in 28 mi SSE 11.2 mph - - Rain Light Rain
3:20 AM 51.8 °F 46.4 °F 82% 30.12 in 6.2 mi SSE 10.4 mph - N/A   Mostly Cloudy
3:50 AM 53.6 °F 46.4 °F 77% 30.12 in 6.2 mi SSE 10.4 mph - N/A   Mostly Cloudy
4:00 AM 53 °F 47 °F 73% 30.14 in 28 mi SSE 8.9 mph - - Rain Light Rain
4:20 AM 53.6 °F 46.4 °F 77% 30.12 in 6.2 mi SSE 9.2 mph - N/A   Mostly Cloudy
4:50 AM 53.6 °F 46.4 °F 77% 30.12 in 6.2 mi SSE 9.2 mph - N/A   Mostly Cloudy
5:20 AM 53.6 °F 46.4 °F 77% 30.12 in 6.2 mi SSE 10.4 mph - N/A   Mostly Cloudy
5:50 AM 53.6 °F 46.4 °F 77% 30.12 in 6.2 mi South 11.5 mph - N/A   Overcast
6:00 AM 53 °F 47 °F 75% 30.15 in 28 mi South 11.2 mph - -   Overcast
6:20 AM 53.6 °F 48.2 °F 82% 30.12 in 6.2 mi South 11.5 mph - N/A   Overcast
6:50 AM 53.6 °F 48.2 °F 82% 30.15 in 6.2 mi South 10.4 mph - N/A   Overcast
7:00 AM 54 °F 47 °F 72% 30.17 in 25 mi South 8.9 mph - -   Overcast
7:20 AM 55.4 °F 48.2 °F 77% 30.15 in 6.2 mi SSE 10.4 mph - N/A   Mostly Cloudy
7:50 AM 55.4 °F 48.2 °F 77% 30.15 in 6.2 mi SSE 9.2 mph - N/A   Mostly Cloudy
8:00 AM 55 °F 48 °F 71% 30.18 in 25 mi SSE 8.9 mph - -   Partly Cloudy
8:20 AM 57.2 °F 48.2 °F 72% 30.15 in 6.2 mi South 11.5 mph - N/A   Mostly Cloudy
8:50 AM 57.2 °F 48.2 °F 72% 30.15 in 6.2 mi South 12.7 mph - N/A   Mostly Cloudy
9:00 AM 57 °F 48 °F 64% 30.17 in 25 mi South 11.2 mph - -   Mostly Cloudy
9:20 AM 59.0 °F 48.2 °F 67% 30.15 in 6.2 mi South 12.7 mph - N/A   Mostly Cloudy
9:50 AM 57.2 °F 48.2 °F 72% 30.18 in 6.2 mi South 11.5 mph - N/A   Mostly Cloudy
10:00 AM 58 °F 49 °F 63% 30.19 in 25 mi South 11.2 mph - -   Mostly Cloudy
10:20 AM 59.0 °F 48.2 °F 67% 30.18 in 6.2 mi South 12.7 mph - N/A   Mostly Cloudy
10:50 AM 59.0 °F 50.0 °F 72% 30.18 in 6.2 mi South 12.7 mph - N/A   Mostly Cloudy
11:20 AM 60.8 °F 48.2 °F 63% 30.18 in 6.2 mi South 11.5 mph - N/A   Mostly Cloudy
11:50 AM 60.8 °F 48.2 °F 63% 30.18 in 6.2 mi South 12.7 mph - N/A   Mostly Cloudy
12:00 PM 61 °F 49 °F 55% 30.20 in 25 mi South 11.2 mph - -   Mostly Cloudy
12:20 PM 60.8 °F 48.2 °F 63% 30.18 in 6.2 mi South 10.4 mph - N/A   Mostly Cloudy
12:50 PM 60.8 °F 50.0 °F 68% 30.18 in 6.2 mi South 10.4 mph - N/A   Mostly Cloudy
1:00 PM 62 °F 49 °F 53% 30.21 in 19 mi South 11.2 mph - -   Mostly Cloudy
1:20 PM 62.6 °F 48.2 °F 59% 30.18 in 6.2 mi South 9.2 mph - N/A   Mostly Cloudy
1:50 PM 62.6 °F 48.2 °F 59% 30.18 in 6.2 mi South 10.4 mph - N/A   Mostly Cloudy
2:00 PM 63 °F 49 °F 50% 30.20 in 19 mi South 8.9 mph - -   Mostly Cloudy
2:20 PM 64.4 °F 50.0 °F 59% 30.18 in 6.2 mi South 10.4 mph - N/A   Mostly Cloudy
2:50 PM 66.2 °F 50.0 °F 56% 30.18 in - SSE 8.1 mph - N/A   Clear
3:00 PM 65 °F 50 °F 48% 30.19 in 22 mi SSE 8.9 mph - -   Mostly Cloudy
3:20 PM 66.2 °F 50.0 °F 56% 30.15 in - South 10.4 mph - N/A   Clear
3:50 PM 68.0 °F 48.2 °F 49% 30.15 in - SSE 10.4 mph - N/A   Clear
4:00 PM 69 °F 49 °F 38% 30.16 in 19 mi SSE 11.2 mph - -   Scattered Clouds
4:20 PM 69.8 °F 48.2 °F 46% 30.15 in - SSE 12.7 mph - N/A   Clear
4:50 PM 71.6 °F 50.0 °F 46% 30.12 in - SE 12.7 mph - N/A   Clear
5:20 PM 71.6 °F 50.0 °F 46% 30.12 in - SE 13.8 mph - N/A   Clear
5:50 PM 71.6 °F 51.8 °F 50% 30.09 in - SE 13.8 mph - N/A   Clear
6:00 PM 71 °F 50 °F 37% 30.11 in 19 mi SE 13.4 mph - -   Scattered Clouds
6:20 PM 69.8 °F 51.8 °F 53% 30.09 in - SE 13.8 mph - N/A   Clear
6:50 PM 71.6 °F 51.8 °F 50% 30.09 in - SSE 13.8 mph - N/A   Clear
7:00 PM 71 °F 51 °F 38% 30.09 in 25 mi SSE 13.4 mph - -   Partly Cloudy
7:20 PM 69.8 °F 50.0 °F 49% 30.06 in - SE 11.5 mph - N/A   Clear
7:50 PM 69.8 °F 50.0 °F 49% 30.06 in - SSE 11.5 mph - N/A   Clear
8:00 PM 69 °F 50 °F 41% 30.08 in 22 mi SSE 11.2 mph - -   Scattered Clouds
8:20 PM 69.8 °F 50.0 °F 49% 30.06 in - South 10.4 mph - N/A   Clear
8:50 PM 68.0 °F 48.2 °F 49% 30.06 in - SSE 6.9 mph - N/A   Clear
9:00 PM 67 °F 49 °F 41% 30.09 in 25 mi SSE 6.7 mph - -   Scattered Clouds
9:20 PM 66.2 °F 50.0 °F 56% 30.09 in - SSE 8.1 mph - N/A   Clear
9:50 PM 68.0 °F 50.0 °F 52% 30.09 in - SSE 10.4 mph - N/A   Clear
10:00 PM 67 °F 50 °F 43% 30.09 in 28 mi SSE 8.9 mph - -   Scattered Clouds
10:20 PM 66.2 °F 50.0 °F 56% 30.06 in - SSE 13.8 mph - N/A   Clear
10:50 PM 66.2 °F 48.2 °F 52% 30.09 in - SSE 11.5 mph - N/A   Clear
11:20 PM 66.2 °F 48.2 °F 52% 30.09 in - SSE 11.5 mph - N/A   Clear
11:50 PM 64.4 °F 48.2 °F 56% 30.06 in - SSE 12.7 mph - N/A   Clear